Location: Unspecified
(47.1121°N, 116.3927°W)
Time: 07:32:33
(UTC-08:00)

ISS - Visible Passes

Search period start: 19 November 2018 00:00
Search period end: 29 November 2018 00:00
Orbit: 401 x 408 km, 51.6° (Epoch: 20 November)

Date Brightness Start Highest point End Pass type
(mag) Time Alt. Az. Time Alt. Az. Time Alt. Az.
23 Nov -1.5 18:06:12 10° S 18:07:14 16° S 18:07:14 16° S visible
24 Nov -1.6 17:15:20 10° SSE 17:16:49 13° SE 17:17:27 12° ESE visible
24 Nov -0.8 18:49:34 10° SW 18:50:08 14° SW 18:50:08 14° SW visible
25 Nov -3.0 17:57:36 10° SW 18:00:16 40° S 18:00:16 40° S visible
26 Nov -2.4 17:05:54 10° SSW 17:08:39 25° SE 17:10:20 17° E visible
26 Nov -1.3 18:41:41 10° WSW 18:43:00 22° W 18:43:00 22° W visible
27 Nov -4.0 17:49:27 10° WSW 17:52:43 84° SSE 17:52:59 73° E visible
28 Nov -3.4 16:57:23 10° SW 17:00:33 52° SSE 17:02:55 16° ENE visible
28 Nov -1.6 18:33:57 10° W 18:35:34 25° WNW 18:35:34 25° WNW visible
